Total_Precipitation_Accumulation
1.07 1.24 1.14 0.82 0.70 0.62 0.53 0.54 0.54 0.45 0.41 0.55 0.51 0.41 0.30 0.28 0.27 0.31 0.41 0.45 0.52 0.51 0.55 0.69 0.85 1.03 1.20 1.33 1.43 1.50 1.69 1.79 2.02 2.19 2.11 2.04 1.99 1.96 1.91 1.85 1.83 1.76 1.78 1.78
1.23 1.01 0.60 0.48 0.53 0.60 0.65 0.68 0.61 0.51 0.46 0.61 0.59 0.47 0.33 0.31 0.30 0.31 0.39 0.43 0.47 0.49 0.56 0.65 0.81 0.96 1.10 1.21 1.28 1.37 1.58 1.76 1.93 2.09 2.06 1.97 1.94 1.92 1.90 1.84 1.87 1.94 1.96 1.95
1.03 0.65 0.40 0.60 0.74 0.75 0.68 0.63 0.57 0.56 0.56 0.63 0.67 0.61 0.39 0.32 0.28 0.31 0.36 0.43 0.49 0.46 0.50 0.57 0.69 0.86 0.98 1.10 1.16 1.29 1.53 1.72 1.95 2.13 2.28 2.23 2.23 2.21 2.12 1.98 1.86 1.85 1.89 1.86
0.80 0.49 0.48 0.69 0.79 0.75 0.69 0.44 0.47 0.58 0.84 0.96 0.81 0.91 0.50 0.36 0.32 0.33 0.35 0.37 0.44 0.46 0.51 0.57 0.65 0.77 0.88 0.99 1.08 1.21 1.53 1.76 1.94 2.11 2.22 2.28 2.23 2.15 2.03 1.91 1.84 1.77 1.73 1.74
0.94 0.57 0.57 0.69 0.63 0.64 0.60 0.43 0.50 0.69 0.94 1.05 0.79 0.92 0.58 0.37 0.41 0.40 0.37 0.36 0.37 0.41 0.46 0.55 0.63 0.75 0.87 0.99 1.03 1.13 1.36 1.62 1.86 2.06 2.12 2.20 2.18 2.08 2.04 2.04 2.00 1.98 1.89 1.78
0.70 0.49 0.60 0.58 0.48 0.57 0.68 0.77 0.87 1.01 1.47 1.66 0.69 0.67 0.56 0.46 0.53 0.47 0.41 0.38 0.34 0.38 0.42 0.53 0.64 0.72 0.86 1.08 1.11 1.15 1.25 1.44 1.70 1.90 1.98 2.01 2.05 2.01 1.99 2.03 2.02 1.99 1.91 1.79
0.93 0.62 0.54 0.53 0.71 0.88 1.11 1.62 2.38 2.52 2.50 1.49 0.40 0.47 0.57 0.47 0.44 0.47 0.47 0.39 0.33 0.36 0.43 0.49 0.59 0.73 0.81 1.00 1.11 1.17 1.24 1.28 1.48 1.72 1.83 1.80 1.88 1.86 1.84 1.88 1.87 1.83 1.79 1.72
1.01 0.82 0.58 0.57 0.80 1.12 1.21 1.50 1.91 1.80 1.26 0.64 0.32 0.39 0.47 0.41 0.37 0.37 0.41 0.39 0.35 0.36 0.43 0.47 0.49 0.67 0.83 0.91 1.00 1.11 1.20 1.25 1.35 1.47 1.63 1.68 1.81 1.81 1.75 1.78 1.80 1.75 1.67 1.58
1.02 0.70 0.40 0.43 0.50 0.68 1.04 1.18 1.05 1.32 0.91 0.64 0.47 0.33 0.31 0.27 0.28 0.28 0.35 0.38 0.40 0.41 0.44 0.48 0.50 0.62 0.77 0.84 0.91 1.05 1.16 1.27 1.31 1.31 1.46 1.56 1.64 1.70 1.66 1.64 1.65 1.65 1.61 1.58
1.13 0.98 0.47 0.44 0.59 0.69 0.83 0.95 1.24 1.77 1.48 0.83 0.45 0.32 0.39 0.35 0.34 0.31 0.34 0.40 0.42 0.44 0.44 0.48 0.55 0.62 0.73 0.81 0.88 0.99 1.06 1.23 1.39 1.36 1.38 1.51 1.55 1.60 1.63 1.57 1.53 1.45 1.43 1.50
1.12 1.31 0.83 0.68 0.89 0.87 0.83 1.12 1.43 1.58 1.31 1.00 0.61 0.47 0.46 0.41 0.40 0.41 0.40 0.46 0.50 0.49 0.48 0.50 0.60 0.68 0.72 0.78 0.86 1.02 1.08 1.18 1.39 1.47 1.43 1.45 1.53 1.57 1.62 1.61 1.50 1.37 1.31 1.35
1.07 1.50 1.16 0.69 0.57 0.55 0.70 0.90 1.13 1.54 1.23 0.82 0.70 0.50 0.36 0.33 0.34 0.36 0.39 0.45 0.52 0.53 0.56 0.58 0.67 0.71 0.72 0.78 0.84 0.96 1.03 1.11 1.29 1.46 1.54 1.50 1.52 1.63 1.65 1.59 1.52 1.45 1.38 1.34
1.70 2.15 1.84 1.32 1.01 0.87 0.98 0.87 0.90 1.06 1.13 0.87 0.74 0.46 0.27 0.20 0.21 0.25 0.35 0.44 0.51 0.51 0.58 0.62 0.66 0.68 0.72 0.75 0.82 0.96 0.99 0.98 1.08 1.28 1.44 1.56 1.59 1.64 1.69 1.63 1.53 1.52 1.53 1.49
2.25 2.41 1.63 1.34 1.06 0.96 0.95 0.75 0.76 1.14 1.39 0.80 0.46 0.39 0.26 0.20 0.22 0.27 0.33 0.41 0.48 0.52 0.57 0.56 0.58 0.63 0.70 0.68 0.74 0.88 0.96 0.95 0.95 1.09 1.28 1.40 1.52 1.64 1.68 1.67 1.64 1.57 1.55 1.54
2.18 2.14 0.92 0.51 0.42 0.54 0.60 0.54 0.60 0.83 0.80 0.71 0.39 0.32 0.35 0.37 0.38 0.40 0.43 0.43 0.43 0.49 0.55 0.56 0.57 0.62 0.66 0.62 0.67 0.77 0.89 0.92 0.91 0.96 1.11 1.30 1.40 1.58 1.66 1.66 1.65 1.66 1.68 1.57
1.95 1.90 0.96 0.57 0.32 0.43 0.50 0.42 0.43 0.48 0.45 0.43 0.30 0.28 0.26 0.31 0.34 0.37 0.42 0.46 0.48 0.54 0.57 0.57 0.56 0.56 0.60 0.62 0.67 0.71 0.79 0.84 0.90 0.95 0.99 1.18 1.39 1.54 1.62 1.64 1.67 1.67 1.68 1.64
1.79 1.78 1.53 0.97 0.45 0.76 0.90 0.55 0.49 0.49 0.45 0.46 0.50 0.43 0.29 0.28 0.34 0.43 0.48 0.50 0.53 0.58 0.62 0.59 0.57 0.57 0.61 0.63 0.65 0.71 0.76 0.80 0.84 0.85 0.88 1.01 1.20 1.39 1.51 1.57 1.65 1.77 1.76 1.69
1.41 1.58 1.99 1.50 1.13 1.49 0.82 0.44 0.43 0.51 0.55 0.52 0.51 0.44 0.39 0.40 0.41 0.44 0.53 0.60 0.57 0.60 0.62 0.60 0.60 0.60 0.63 0.63 0.64 0.71 0.73 0.73 0.76 0.77 0.76 0.83 0.97 1.15 1.34 1.51 1.58 1.68 1.78 1.76
0.84 1.48 2.26 2.04 1.61 0.97 0.46 0.39 0.55 0.63 0.64 0.56 0.50 0.41 0.38 0.35 0.34 0.39 0.48 0.62 0.70 0.70 0.65 0.61 0.59 0.58 0.58 0.62 0.66 0.66 0.69 0.72 0.72 0.73 0.75 0.76 0.84 0.96 1.13 1.30 1.43 1.54 1.65 1.70
0.87 1.44 2.40 2.20 1.74 0.95 0.52 0.35 0.39 0.55 0.74 0.51 0.49 0.49 0.45 0.43 0.48 0.49 0.51 0.59 0.67 0.66 0.63 0.61 0.56 0.53 0.55 0.61 0.64 0.65 0.68 0.71 0.74 0.74 0.75 0.76 0.80 0.85 0.97 1.12 1.27 1.43 1.53 1.60
1.23 1.87 2.20 1.73 1.49 0.78 0.47 0.35 0.35 0.75 0.85 0.51 0.51 0.56 0.55 0.60 0.62 0.56 0.50 0.51 0.56 0.57 0.57 0.56 0.53 0.52 0.58 0.61 0.63 0.68 0.68 0.71 0.73 0.71 0.71 0.73 0.74 0.77 0.85 1.01 1.15 1.31 1.42 1.52
0.90 1.23 1.23 1.16 1.41 0.89 0.47 0.43 0.69 0.85 0.56 0.50 0.50 0.52 0.55 0.53 0.50 0.49 0.48 0.47 0.46 0.49 0.49 0.51 0.52 0.54 0.57 0.57 0.62 0.69 0.69 0.68 0.66 0.65 0.65 0.67 0.68 0.71 0.79 0.93 1.07 1.18 1.33 1.46
0.67 0.88 0.93 0.88 0.84 0.63 0.56 0.65 0.68 0.62 0.57 0.50 0.50 0.48 0.51 0.53 0.51 0.48 0.46 0.44 0.44 0.46 0.46 0.46 0.51 0.53 0.53 0.54 0.58 0.69 0.69 0.64 0.60 0.60 0.62 0.63 0.65 0.70 0.73 0.80 0.95 1.15 1.24 1.35
0.48 0.47 0.63 0.65 0.51 0.43 0.41 0.43 0.46 0.50 0.53 0.50 0.50 0.52 0.51 0.53 0.51 0.46 0.41 0.41 0.40 0.42 0.44 0.43 0.44 0.48 0.53 0.57 0.59 0.62 0.65 0.63 0.55 0.58 0.61 0.60 0.64 0.70 0.70 0.73 0.84 1.03 1.20 1.29
0.46 0.44 0.51 0.55 0.42 0.35 0.31 0.33 0.37 0.39 0.38 0.38 0.41 0.47 0.49 0.49 0.45 0.41 0.38 0.36 0.38 0.41 0.43 0.41 0.43 0.47 0.57 0.63 0.60 0.57 0.59 0.59 0.56 0.56 0.61 0.61 0.61 0.67 0.71 0.77 0.85 0.95 1.09 1.32
0.40 0.46 0.55 0.55 0.43 0.48 0.40 0.32 0.32 0.33 0.33 0.35 0.37 0.39 0.40 0.41 0.39 0.33 0.33 0.34 0.35 0.38 0.38 0.38 0.39 0.43 0.51 0.58 0.58 0.54 0.55 0.56 0.57 0.58 0.59 0.63 0.66 0.66 0.68 0.77 0.90 1.03 1.08 1.19